Regional Weather Roundup
Issued by NWS

Home | Current Version | Previous Version | Text Only | Print | Product List | Glossary On
Versions: 1 2 3 4 5 6 7 8 9 10 11 12 13 14 15 16 17 18 19 20 21 22 23 24 25 26 27 28 29 30 31 32 33 34 35 36 37 38 39 40 41 42 43 44 45 46 47 48 49 50
000
ASUS43 KDTX 271101
RWRMI
MICHIGAN HOURLY REGIONAL WEATHER ROUNDUP
NATIONAL WEATHER SERVICE DETROIT/PONTIAC MI
700 AM EDT MON APR 27 2015

NOTE: "FAIR" INDICATES FEW OR NO CLOUDS BELOW 12,000 FEET WITH NO
SIGNIFICANT WEATHER AND/OR OBSTRUCTION TO VISIBILITY.

MIZ047>049-052>055-059>063-066>070-074>076-081>083-271200-
SOUTHEAST LOWER MICHIGAN

CITY           SKY/WX    TMP DP  RH WIND       PRES   REMARKS
ADRIAN         CLOUDY    41  33  73 N7        29.95R
ALMA           CLOUDY    42  34  73 NW7       29.98S
ANN ARBOR      CLOUDY    42  33  70 N9        29.94R
BAD AXE        LGT RAIN  37  35  92 N14       29.96R WCI  28
CARO           DRIZZLE   38  35  90 N6        29.96R WCI  33
DETROIT CITY   CLOUDY    42  35  76 N9        29.94R
DETROIT        CLOUDY    44  34  67 NW9       29.94R
FLINT          CLOUDY    41  36  82 N7        29.97R
HILLSDALE      MOCLDY    39  34  82 N6        29.94S WCI  34
HOWELL         CLOUDY    40  34  79 N6        29.95R

CITY           SKY/WX    TMP DP  RH WIND       PRES   REMARKS
JACKSON        CLOUDY    39  32  76 NW7       29.96R WCI  34
LAMBERTVILLE   MOCLDY    41  34  75 NW3       29.94R
LANSING        CLOUDY    41  32  70 NW8       29.98R
LAPEER         CLOUDY    38  35  90 N8        29.95R WCI  32
MASON          CLOUDY    40  32  73 N6        29.96R
MONROE         CLOUDY    41  34  75 CALM      29.92R
PONTIAC        CLOUDY    39  35  86 N12       29.93R WCI  32
PORT HOPE        N/A     38  35  89 N7        29.94S WCI  33
PORT HURON     DRIZZLE   37  36  93 N6        29.94R WCI  33
TRI CITIES     CLOUDY    43  39  86 CALM      29.98R
MIDLAND        CLOUDY    43  33  68 N6        29.97R
TROY           CLOUDY    43  37  79 N12G17    29.95R
SAGINAW HB     CLOUDY    41  39  93 NE7       29.97R
$$
MIZ043>046-050>051-056>058-064>065-071>073-077>080-271200-
SOUTHWEST LOWER MICHIGAN

CITY           SKY/WX    TMP DP  RH WIND       PRES   REMARKS
BATTLE CREEK   CLEAR     39  31  72 N7        29.98S WCI  34
BENTON HARBOR  CLEAR     37  33  85 N6        30.01F WCI  32
BIG RAPIDS     CLOUDY    38  32  78 NW3       30.00R
COLDWATER      PTCLDY    38  31  78 N5        29.96S WCI  34
FREMONT        CLOUDY    38  32  78 N8        30.02R WCI  32
HOLLAND        PTCLDY    40  33  76 N7        30.02R
GRAND RAPIDS   MOCLDY    41  31  67 N8        30.00R
IONIA          CLOUDY    41  32  70 NW9       29.99R
KALAMAZOO      CLEAR     37  30  75 N7        29.99S WCI  32
LUDINGTON      CLOUDY    40  35  80 N7        30.05S
MARSHALL       PTCLDY    37  31  78 NW3       29.97R
MOUNT PLEASANT CLOUDY    42  33  72 NW5       29.98S
MUSKEGON       CLOUDY    40  32  73 N8        30.04R WCI  34
SOUTH HAVEN    CLEAR     38  34  84 N9        30.01S WCI  32
$$
MIZ016>042-271200-
NORTHERN LOWER MICHIGAN

CITY           SKY/WX    TMP DP  RH WIND       PRES   REMARKS
BEAVER ISLAND  CLOUDY    41  33  74 N3        30.06S
BELLAIRE       CLOUDY    41  34  75 N3        30.04R
CADILLAC       CLOUDY    38  33  82 N7        30.00R WCI  33
CHARLEVOIX     CLOUDY    38  35  89 N7        30.08R WCI  32
FRANKFORT      CLOUDY    42  32  66 N3        30.06R
GAYLORD        CLOUDY    37  34  89 VRB5      30.00R WCI  33
GRAYLING       CLOUDY    39  32  75 CALM      30.01R
HARBOR SPRINGS CLOUDY    40  33  76 N3        30.04R
HOUGHTON LAKE  CLOUDY    40  32  73 N8        30.00R WCI  34
MANISTEE       CLOUDY    41  32  70 N8        30.06R
OSCODA         CLOUDY    39  35  84 N8        29.98R WCI  34
PELLSTON       CLOUDY    40  33  76 N8        30.04R WCI  34
ROGERS CITY    CLOUDY    39  35  85 NW10      30.02R WCI  32
TRAVERSE CITY  CLOUDY    42  34  73 N9        30.04R
$$
MIZ007>008-015-271200-
EASTERN UPPER MICHIGAN

CITY           SKY/WX    TMP DP  RH WIND       PRES   REMARKS
KINROSS        CLOUDY    37  36  93 NW8       30.03R WCI  31
MACKINAC ISLAN CLOUDY    39  33  78 N8        30.03R WCI  34
NEWBERRY       CLOUDY    37  33  84 N6        30.05R WCI  33
S. S. MARIE    CLOUDY    40  32  73 N6        30.03R
$$
MIZ004>006-011>014-085-271200-
CENTRAL UPPER MICHIGAN

CITY           SKY/WX    TMP DP  RH WIND       PRES   REMARKS
MANISTIQUE     CLOUDY    38  34  83 NW5       30.07S WCI  35
ESCANABA       CLEAR     34  27  75 NW5       30.10R WCI  30
MENOMINEE      CLEAR     36  27  69 NW7       30.10S WCI  30
SAWYER-GWINN   CLEAR     32  27  80 N6        30.10R WCI  26
$$
MIZ001>003-009>011-084-271200-
WESTERN UPPER MICHIGAN

CITY           SKY/WX    TMP DP  RH WIND       PRES   REMARKS
IRON MOUNTAIN  CLEAR     33  26  75 NW7       30.11R WCI  27
HOUGHTON       CLEAR     32  28  85 W8        30.15R WCI  25
COPPER HARBOR    N/A     38  30  73 N8        30.15R WCI  32
IRONWOOD       CLEAR     27  25  93 CALM      30.17R
$$

ABBREVIATIONS USED IN REMARKS
   TC - TEMPERATURE IN CELSIUS
  WCI - WIND CHILL INDEX
   HX - HEAT INDEX
  VSB - VISIBILITY



USA.gov is the U.S. government's official web portal to all federal, state and local government web resources and services.